Time,TemperatureF,DewpointF,PressureIn,WindDirection,WindDirectionDegrees,WindSpeedMPH,WindSpeedGustMPH,Humidity,HourlyPrecipIn,Conditions,Clouds,dailyrainin,SoftwareType,DateUTC
2013-03-01 00:00:00,30.9,28.9,29.62,NW,315,1.0,0.0,92,0.00,,CLR,-99.99,VWS V14.01,2013-03-01 05:00:00,
2013-03-01 00:01:00,30.9,28.9,29.62,NW,315,1.0,0.0,92,0.00,,CLR,-99.99,VWS V14.01,2013-03-01 05:01:00,
2013-03-01 00:05:00,30.9,28.9,29.62,NW,315,1.0,0.0,92,0.00,,CLR,-99.99,VWS V14.01,2013-03-01 05:05:00,
2013-03-01 00:07:00,30.9,28.9,29.62,NW,315,1.0,0.0,92,0.00,,CLR,-99.99,VWS V14.01,2013-03-01 05:07:00,
2013-03-01 00:13:00,30.9,28.9,29.62,NW,315,1.0,0.0,92,0.00,,CLR,-99.99,VWS V14.01,2013-03-01 05:13:00,
2013-03-01 00:18:00,30.7,28.7,29.62,NW,315,1.0,0.0,92,0.00,,CLR,-99.99,VWS V14.01,2013-03-01 05:18:00,
2013-03-01 00:24:00,30.7,28.7,29.62,NW,315,1.0,0.0,92,0.00,,CLR,-99.99,VWS V14.01,2013-03-01 05:24:00,
2013-03-01 00:30:00,30.7,28.7,29.62,NW,315,1.0,0.0,92,0.00,,CLR,-99.99,VWS V14.01,2013-03-01 05:30:00,
2013-03-01 00:35:00,30.7,28.7,29.62,NW,315,1.0,0.0,92,0.00,,CLR,-99.99,VWS V14.01,2013-03-01 05:35:00,
2013-03-01 00:40:00,30.5,28.5,29.62,WNW,292,1.0,0.0,92,0.00,,CLR,-99.99,VWS V14.01,2013-03-01 05:40:00,
2013-03-01 00:45:00,30.5,28.5,29.62,WNW,292,1.0,0.0,92,0.00,,CLR,-99.99,VWS V14.01,2013-03-01 05:45:00,
2013-03-01 00:50:00,30.5,28.5,29.62,WNW,292,1.0,0.0,92,0.00,,CLR,-99.99,VWS V14.01,2013-03-01 05:50:00,
2013-03-01 00:55:00,30.5,28.5,29.62,WNW,292,1.0,0.0,92,0.00,,CLR,-99.99,VWS V14.01,2013-03-01 05:55:00,
2013-03-01 01:00:00,30.5,28.5,29.62,WNW,292,1.0,0.0,92,0.00,,CLR,-99.99,VWS V14.01,2013-03-01 06:00:00,
2013-03-01 01:06:00,30.5,28.5,29.62,WNW,292,1.0,0.0,92,0.00,,CLR,-99.99,VWS V14.01,2013-03-01 06:06:00,
2013-03-01 01:12:00,30.3,28.3,29.63,WNW,292,1.0,0.0,92,0.00,,CLR,-99.99,VWS V14.01,2013-03-01 06:12:00,
2013-03-01 01:17:00,30.3,28.3,29.63,WNW,292,1.0,0.0,92,0.00,,CLR,-99.99,VWS V14.01,2013-03-01 06:17:00,
2013-03-01 01:22:00,30.3,28.3,29.63,WNW,292,1.0,0.0,92,0.00,,CLR,-99.99,VWS V14.01,2013-03-01 06:22:00,
2013-03-01 01:27:00,30.3,28.3,29.63,WNW,292,1.0,0.0,92,0.00,,CLR,-99.99,VWS V14.01,2013-03-01 06:27:00,
2013-03-01 01:33:00,30.3,28.3,29.62,WNW,292,1.0,0.0,92,0.00,,CLR,-99.99,VWS V14.01,2013-03-01 06:33:00,
2013-03-01 01:38:00,30.5,28.5,29.63,WNW,292,1.0,0.0,92,0.00,,CLR,-99.99,VWS V14.01,2013-03-01 06:38:00,
2013-03-01 01:43:00,30.5,28.5,29.63,WNW,292,1.0,0.0,92,0.00,,CLR,-99.99,VWS V14.01,2013-03-01 06:43:00,
2013-03-01 01:49:00,30.5,28.5,29.62,WNW,292,1.0,0.0,92,0.00,,CLR,-99.99,VWS V14.01,2013-03-01 06:49:00,
2013-03-01 01:55:00,30.3,28.3,29.62,WNW,292,1.0,0.0,92,0.00,,CLR,-99.99,VWS V14.01,2013-03-01 06:55:00,
2013-03-01 02:00:00,30.5,28.5,29.62,WNW,292,1.0,0.0,92,0.00,,CLR,-99.99,VWS V14.01,2013-03-01 07:00:00,
2013-03-01 02:05:00,30.5,28.5,29.62,WNW,292,1.0,0.0,92,0.00,,CLR,-99.99,VWS V14.01,2013-03-01 07:05:00,
2013-03-01 02:10:00,30.5,28.5,29.63,WNW,292,1.0,0.0,92,0.00,,CLR,-99.99,VWS V14.01,2013-03-01 07:10:00,
2013-03-01 02:15:00,30.5,28.7,29.63,WNW,292,1.0,0.0,93,0.00,,CLR,-99.99,VWS V14.01,2013-03-01 07:15:00,
2013-03-01 02:20:00,30.3,28.3,29.63,WNW,292,1.0,0.0,92,0.00,,CLR,-99.99,VWS V14.01,2013-03-01 07:20:00,
2013-03-01 02:25:00,30.3,28.3,29.63,WNW,292,1.0,0.0,92,0.00,,CLR,-99.99,VWS V14.01,2013-03-01 07:25:00,
2013-03-01 02:30:00,30.3,28.3,29.63,WNW,292,1.0,0.0,92,0.00,,CLR,-99.99,VWS V14.01,2013-03-01 07:30:00,
2013-03-01 02:36:00,30.3,28.3,29.62,WNW,292,1.0,0.0,92,0.00,,CLR,-99.99,VWS V14.01,2013-03-01 07:36:00,
2013-03-01 02:42:00,30.3,28.3,29.62,WNW,292,1.0,0.0,92,0.00,,CLR,-99.99,VWS V14.01,2013-03-01 07:42:00,
2013-03-01 02:48:00,30.3,28.3,29.63,WNW,292,1.0,0.0,92,0.00,,CLR,-99.99,VWS V14.01,2013-03-01 07:48:00,
2013-03-01 02:53:00,30.3,28.5,29.63,WNW,292,1.0,0.0,93,0.00,,CLR,-99.99,VWS V14.01,2013-03-01 07:53:00,
2013-03-01 02:59:00,30.3,28.5,29.62,WNW,292,1.0,0.0,93,0.00,,CLR,-99.99,VWS V14.01,2013-03-01 07:59:00,
2013-03-01 03:04:00,30.3,28.5,29.62,WNW,292,1.0,0.0,93,0.00,,CLR,-99.99,VWS V14.01,2013-03-01 08:04:00,
2013-03-01 03:09:00,30.3,28.5,29.62,WNW,292,1.0,0.0,93,0.00,,CLR,-99.99,VWS V14.01,2013-03-01 08:09:00,
2013-03-01 03:15:00,30.3,28.5,29.63,WNW,292,1.0,0.0,93,0.00,,CLR,-99.99,VWS V14.01,2013-03-01 08:15:00,
2013-03-01 03:20:00,30.2,28.4,29.63,WNW,292,1.0,0.0,93,0.00,,CLR,-99.99,VWS V14.01,2013-03-01 08:20:00,
2013-03-01 03:25:00,30.0,28.2,29.63,WNW,292,1.0,0.0,93,0.00,,CLR,-99.99,VWS V14.01,2013-03-01 08:25:00,
2013-03-01 03:30:00,30.0,28.2,29.63,WNW,292,1.0,0.0,93,0.00,,CLR,-99.99,VWS V14.01,2013-03-01 08:30:00,
2013-03-01 03:36:00,30.0,28.2,29.63,NW,315,1.0,0.0,93,0.00,,CLR,-99.99,VWS V14.01,2013-03-01 08:36:00,
2013-03-01 03:41:00,30.0,28.2,29.63,NW,315,1.0,0.0,93,0.00,,CLR,-99.99,VWS V14.01,2013-03-01 08:41:00,
2013-03-01 03:46:00,29.8,28.0,29.63,NW,315,1.0,0.0,93,0.00,,CLR,-99.99,VWS V14.01,2013-03-01 08:46:00,
2013-03-01 03:52:00,29.4,27.6,29.63,NW,315,1.0,0.0,93,0.00,,CLR,-99.99,VWS V14.01,2013-03-01 08:52:00,
2013-03-01 03:57:00,29.4,27.6,29.63,WNW,292,1.0,0.0,93,0.00,,CLR,-99.99,VWS V14.01,2013-03-01 08:57:00,
2013-03-01 04:03:00,29.1,27.3,29.64,NW,315,1.0,0.0,93,0.00,,CLR,-99.99,VWS V14.01,2013-03-01 09:03:00,
2013-03-01 04:09:00,29.1,27.3,29.64,NW,315,1.0,0.0,93,0.00,,CLR,-99.99,VWS V14.01,2013-03-01 09:09:00,
2013-03-01 04:15:00,28.7,26.9,29.64,NW,315,1.0,0.0,93,0.00,,CLR,-99.99,VWS V14.01,2013-03-01 09:15:00,
2013-03-01 04:20:00,28.7,26.9,29.65,WNW,292,1.0,0.0,93,0.00,,CLR,-99.99,VWS V14.01,2013-03-01 09:20:00,
2013-03-01 04:25:00,28.7,26.9,29.65,WNW,292,1.0,0.0,93,0.00,,CLR,-99.99,VWS V14.01,2013-03-01 09:25:00,
2013-03-01 04:30:00,28.5,26.7,29.65,WNW,292,1.0,0.0,93,0.00,,CLR,-99.99,VWS V14.01,2013-03-01 09:30:00,
2013-03-01 04:35:00,28.7,26.7,29.65,WNW,292,1.0,0.0,92,0.00,,CLR,-99.99,VWS V14.01,2013-03-01 09:35:00,
2013-03-01 04:40:00,28.7,26.7,29.65,NW,315,1.0,0.0,92,0.00,,CLR,-99.99,VWS V14.01,2013-03-01 09:40:00,
2013-03-01 04:45:00,28.7,26.7,29.65,WNW,292,1.0,0.0,92,0.00,,CLR,-99.99,VWS V14.01,2013-03-01 09:45:00,
2013-03-01 04:51:00,28.7,26.7,29.65,WNW,292,1.0,0.0,92,0.00,,CLR,-99.99,VWS V14.01,2013-03-01 09:51:00,
2013-03-01 04:56:00,28.7,26.7,29.65,West,270,1.0,0.0,92,0.00,,CLR,-99.99,VWS V14.01,2013-03-01 09:56:00,
2013-03-01 05:01:00,28.5,26.5,29.65,WNW,292,1.0,0.0,92,0.00,,CLR,-99.99,VWS V14.01,2013-03-01 10:01:00,
2013-03-01 05:06:00,28.5,26.5,29.65,WNW,292,1.0,0.0,92,0.00,,CLR,-99.99,VWS V14.01,2013-03-01 10:06:00,
2013-03-01 05:11:00,28.5,26.5,29.65,WNW,292,1.0,0.0,92,0.00,,CLR,-99.99,VWS V14.01,2013-03-01 10:11:00,
2013-03-01 05:15:00,28.5,26.5,29.65,NW,315,1.0,0.0,92,0.00,,CLR,-99.99,VWS V14.01,2013-03-01 10:15:00,
2013-03-01 05:20:00,28.5,26.5,29.65,NW,315,1.0,0.0,92,0.00,,CLR,-99.99,VWS V14.01,2013-03-01 10:20:00,
2013-03-01 05:26:00,28.5,26.5,29.65,WNW,292,1.0,0.0,92,0.00,,CLR,-99.99,VWS V14.01,2013-03-01 10:26:00,
2013-03-01 05:32:00,28.5,26.5,29.65,WNW,292,1.0,0.0,92,0.00,,CLR,-99.99,VWS V14.01,2013-03-01 10:32:00,
2013-03-01 05:37:00,28.5,26.2,29.65,WNW,292,1.0,0.0,91,0.00,,CLR,-99.99,VWS V14.01,2013-03-01 10:37:00,
2013-03-01 05:42:00,28.5,26.2,29.65,WNW,292,1.0,0.0,91,0.00,,CLR,-99.99,VWS V14.01,2013-03-01 10:42:00,
2013-03-01 05:48:00,28.5,26.2,29.65,WNW,292,1.0,0.0,91,0.00,,CLR,-99.99,VWS V14.01,2013-03-01 10:48:00,
2013-03-01 05:53:00,28.5,26.2,29.65,WNW,292,1.0,0.0,91,0.00,,CLR,-99.99,VWS V14.01,2013-03-01 10:53:00,
2013-03-01 05:58:00,28.5,26.2,29.65,WNW,292,1.0,0.0,91,0.00,,CLR,-99.99,VWS V14.01,2013-03-01 10:58:00,
2013-03-01 06:03:00,28.5,26.2,29.65,WNW,292,1.0,0.0,91,0.00,,CLR,-99.99,VWS V14.01,2013-03-01 11:03:00,
2013-03-01 06:08:00,28.5,26.2,29.65,WSW,248,1.0,0.0,91,0.00,,CLR,-99.99,VWS V14.01,2013-03-01 11:08:00,
2013-03-01 06:14:00,28.2,25.6,29.66,NW,315,1.0,0.0,90,0.00,,CLR,-99.99,VWS V14.01,2013-03-01 11:14:00,
2013-03-01 06:19:00,28.2,25.6,29.65,West,270,1.0,0.0,90,0.00,,CLR,-99.99,VWS V14.01,2013-03-01 11:19:00,
2013-03-01 06:24:00,28.2,25.6,29.66,WNW,292,1.0,0.0,90,0.00,,CLR,-99.99,VWS V14.01,2013-03-01 11:24:00,
2013-03-01 06:30:00,28.2,25.4,29.66,WNW,292,1.0,0.0,89,0.00,,CLR,-99.99,VWS V14.01,2013-03-01 11:30:00,
2013-03-01 06:35:00,28.2,25.4,29.66,NW,315,1.0,0.0,89,0.00,,CLR,-99.99,VWS V14.01,2013-03-01 11:35:00,
2013-03-01 06:40:00,28.0,25.2,29.66,WNW,292,1.0,0.0,89,0.00,,CLR,-99.99,VWS V14.01,2013-03-01 11:40:00,
2013-03-01 06:45:00,28.0,25.2,29.66,WNW,292,1.0,0.0,89,0.00,,CLR,-99.99,VWS V14.01,2013-03-01 11:45:00,
2013-03-01 06:50:00,28.0,25.2,29.66,West,270,1.0,0.0,89,0.00,,CLR,-99.99,VWS V14.01,2013-03-01 11:50:00,
2013-03-01 06:56:00,28.0,25.2,29.66,WNW,292,1.0,0.0,89,0.00,,CLR,-99.99,VWS V14.01,2013-03-01 11:56:00,
2013-03-01 07:01:00,28.0,25.2,29.67,NW,315,1.0,0.0,89,0.00,,CLR,-99.99,VWS V14.01,2013-03-01 12:01:00,
2013-03-01 07:07:00,28.0,24.9,29.66,West,270,1.0,0.0,88,0.00,,CLR,-99.99,VWS V14.01,2013-03-01 12:07:00,
2013-03-01 07:13:00,28.0,24.6,29.67,WNW,292,1.0,0.0,87,0.00,,CLR,-99.99,VWS V14.01,2013-03-01 12:13:00,
2013-03-01 07:19:00,28.0,24.4,29.67,WNW,292,1.0,0.0,86,0.00,,CLR,-99.99,VWS V14.01,2013-03-01 12:19:00,
2013-03-01 07:25:00,28.0,24.4,29.67,West,270,1.0,0.0,86,0.00,,CLR,-99.99,VWS V14.01,2013-03-01 12:25:00,
2013-03-01 07:30:00,28.0,24.4,29.67,WNW,292,1.0,0.0,86,0.00,,CLR,-99.99,VWS V14.01,2013-03-01 12:30:00,
2013-03-01 07:36:00,28.0,24.1,29.68,WNW,292,1.0,0.0,85,0.00,,CLR,-99.99,VWS V14.01,2013-03-01 12:36:00,
2013-03-01 07:42:00,28.0,24.1,29.68,NW,315,1.0,7.4,85,0.00,,CLR,-99.99,VWS V14.01,2013-03-01 12:42:00,
2013-03-01 07:47:00,28.0,24.4,29.68,WNW,292,1.0,0.0,86,0.00,,CLR,-99.99,VWS V14.01,2013-03-01 12:47:00,
2013-03-01 07:53:00,28.0,24.4,29.68,WNW,292,1.0,0.0,86,0.00,,CLR,-99.99,VWS V14.01,2013-03-01 12:53:00,
2013-03-01 07:59:00,28.0,24.4,29.69,NW,315,1.0,0.0,86,0.00,,CLR,-99.99,VWS V14.01,2013-03-01 12:59:00,
2013-03-01 08:04:00,28.0,24.6,29.69,WNW,292,1.0,0.0,87,0.00,,CLR,-99.99,VWS V14.01,2013-03-01 13:04:00,
2013-03-01 08:09:00,28.0,24.4,29.69,West,270,1.0,0.0,86,0.00,,CLR,-99.99,VWS V14.01,2013-03-01 13:09:00,
2013-03-01 08:14:00,28.2,24.6,29.69,West,270,1.0,0.0,86,0.00,,CLR,-99.99,VWS V14.01,2013-03-01 13:14:00,
2013-03-01 08:19:00,28.2,24.3,29.69,WNW,292,1.0,0.0,85,0.00,,CLR,-99.99,VWS V14.01,2013-03-01 13:19:00,
2013-03-01 08:24:00,28.2,24.3,29.69,WNW,292,1.0,0.0,85,0.00,,CLR,-99.99,VWS V14.01,2013-03-01 13:24:00,
2013-03-01 08:29:00,28.2,24.3,29.70,WNW,292,1.0,0.0,85,0.00,,CLR,-99.99,VWS V14.01,2013-03-01 13:29:00,
2013-03-01 08:34:00,28.5,24.6,29.70,West,270,1.0,0.0,85,0.00,,CLR,-99.99,VWS V14.01,2013-03-01 13:34:00,
2013-03-01 08:39:00,28.5,24.6,29.70,WSW,248,1.0,0.0,85,0.00,,CLR,-99.99,VWS V14.01,2013-03-01 13:39:00,
2013-03-01 08:44:00,28.4,24.2,29.69,WSW,248,1.0,0.0,84,0.00,,CLR,-99.99,VWS V14.01,2013-03-01 13:44:00,
2013-03-01 08:49:00,28.5,24.6,29.70,West,270,1.0,0.0,85,0.00,,CLR,-99.99,VWS V14.01,2013-03-01 13:49:00,
2013-03-01 08:54:00,28.5,24.3,29.70,SW,225,1.0,0.0,84,0.00,,CLR,-99.99,VWS V14.01,2013-03-01 13:54:00,
2013-03-01 08:59:00,28.2,24.3,29.70,West,270,1.0,0.0,85,0.00,,CLR,-99.99,VWS V14.01,2013-03-01 13:59:00,
2013-03-01 09:05:00,28.2,24.3,29.70,WSW,248,1.0,0.0,85,0.00,,CLR,-99.99,VWS V14.01,2013-03-01 14:05:00,
2013-03-01 09:10:00,28.4,24.5,29.70,WSW,248,1.0,0.0,85,0.00,,CLR,-99.99,VWS V14.01,2013-03-01 14:10:00,
2013-03-01 09:15:00,28.2,24.3,29.70,WSW,248,1.0,0.0,85,0.00,,CLR,-99.99,VWS V14.01,2013-03-01 14:15:00,
2013-03-01 09:21:00,28.4,24.5,29.70,WSW,248,1.0,0.0,85,0.00,,CLR,-99.99,VWS V14.01,2013-03-01 14:21:00,
2013-03-01 09:27:00,28.5,24.6,29.70,SW,225,1.0,0.0,85,0.00,,CLR,-99.99,VWS V14.01,2013-03-01 14:27:00,
2013-03-01 09:33:00,28.9,24.7,29.70,West,270,1.0,0.0,84,0.00,,CLR,-99.99,VWS V14.01,2013-03-01 14:33:00,
2013-03-01 09:38:00,29.1,24.9,29.70,WSW,248,1.0,0.0,84,0.00,,CLR,-99.99,VWS V14.01,2013-03-01 14:38:00,
2013-03-01 09:43:00,29.4,25.2,29.70,WSW,248,1.0,0.0,84,0.00,,CLR,-99.99,VWS V14.01,2013-03-01 14:43:00,
2013-03-01 09:48:00,29.4,24.9,29.70,West,270,1.0,0.0,83,0.00,,CLR,-99.99,VWS V14.01,2013-03-01 14:48:00,
2013-03-01 09:54:00,29.3,24.8,29.70,SW,225,1.0,0.0,83,0.00,,CLR,-99.99,VWS V14.01,2013-03-01 14:54:00,
2013-03-01 10:00:00,29.8,25.3,29.70,SW,225,1.0,0.0,83,0.00,,CLR,-99.99,VWS V14.01,2013-03-01 15:00:00,
2013-03-01 10:05:00,29.8,25.3,29.70,WSW,248,1.0,0.0,83,0.00,,CLR,-99.99,VWS V14.01,2013-03-01 15:05:00,
2013-03-01 10:10:00,30.0,25.5,29.70,West,270,1.0,0.0,83,0.00,,CLR,-99.99,VWS V14.01,2013-03-01 15:10:00,
2013-03-01 10:15:00,30.0,25.5,29.71,WNW,292,1.0,0.0,83,0.00,,CLR,-99.99,VWS V14.01,2013-03-01 15:15:00,
2013-03-01 10:21:00,30.0,25.2,29.71,West,270,1.0,0.0,82,0.00,,CLR,-99.99,VWS V14.01,2013-03-01 15:21:00,
2013-03-01 10:27:00,30.0,25.2,29.71,WSW,248,1.0,0.0,82,0.00,,CLR,-99.99,VWS V14.01,2013-03-01 15:27:00,
2013-03-01 10:32:00,30.0,25.2,29.70,WNW,292,1.0,0.0,82,0.00,,CLR,-99.99,VWS V14.01,2013-03-01 15:32:00,
2013-03-01 10:37:00,30.5,25.7,29.71,WNW,292,1.0,0.0,82,0.00,,CLR,-99.99,VWS V14.01,2013-03-01 15:37:00,
2013-03-01 10:42:00,30.9,26.1,29.70,WNW,292,1.0,0.0,82,0.00,,CLR,-99.99,VWS V14.01,2013-03-01 15:42:00,
2013-03-01 10:48:00,30.9,25.8,29.70,WNW,292,1.0,0.0,81,0.00,,CLR,-99.99,VWS V14.01,2013-03-01 15:48:00,
2013-03-01 10:54:00,30.7,25.3,29.70,NW,315,1.0,0.0,80,0.00,,CLR,-99.99,VWS V14.01,2013-03-01 15:54:00,
2013-03-01 11:00:00,30.9,25.5,29.70,WNW,292,1.0,0.0,80,0.00,,CLR,-99.99,VWS V14.01,2013-03-01 16:00:00,
2013-03-01 11:05:00,31.1,25.7,29.70,WSW,248,1.0,0.0,80,0.00,,CLR,-99.99,VWS V14.01,2013-03-01 16:05:00,
2013-03-01 11:11:00,30.9,25.2,29.70,WNW,292,1.0,0.0,79,0.00,,CLR,-99.99,VWS V14.01,2013-03-01 16:11:00,
2013-03-01 11:16:00,30.9,25.2,29.70,WSW,248,1.0,0.0,79,0.00,,CLR,-99.99,VWS V14.01,2013-03-01 16:16:00,
2013-03-01 11:22:00,31.2,25.5,29.70,West,270,1.0,0.0,79,0.00,,CLR,-99.99,VWS V14.01,2013-03-01 16:22:00,
2013-03-01 11:28:00,31.2,25.1,29.71,West,270,1.0,0.0,78,0.00,,CLR,-99.99,VWS V14.01,2013-03-01 16:28:00,
2013-03-01 11:33:00,30.9,24.9,29.70,WSW,248,1.0,0.0,78,0.00,,CLR,-99.99,VWS V14.01,2013-03-01 16:33:00,
2013-03-01 11:38:00,31.2,25.1,29.70,WSW,248,1.0,0.0,78,0.00,,CLR,-99.99,VWS V14.01,2013-03-01 16:38:00,
2013-03-01 11:43:00,31.6,25.5,29.70,West,270,1.0,0.0,78,0.00,,CLR,-99.99,VWS V14.01,2013-03-01 16:43:00,
2013-03-01 11:48:00,31.6,25.2,29.70,WSW,248,1.0,0.0,77,0.00,,CLR,-99.99,VWS V14.01,2013-03-01 16:48:00,
2013-03-01 11:53:00,31.6,25.5,29.70,WNW,292,1.0,0.0,78,0.00,,CLR,-99.99,VWS V14.01,2013-03-01 16:53:00,
2013-03-01 11:58:00,31.6,25.2,29.71,WSW,248,1.0,0.0,77,0.00,,CLR,-99.99,VWS V14.01,2013-03-01 16:58:00,
2013-03-01 12:04:00,31.6,25.5,29.71,West,270,1.0,0.0,78,0.00,,CLR,-99.99,VWS V14.01,2013-03-01 17:04:00,
2013-03-01 12:10:00,31.6,25.5,29.71,WNW,292,1.0,0.0,78,0.00,,CLR,-99.99,VWS V14.01,2013-03-01 17:10:00,
2013-03-01 12:15:00,31.2,25.1,29.71,WNW,292,1.0,0.0,78,0.00,,CLR,-99.99,VWS V14.01,2013-03-01 17:15:00,
2013-03-01 12:21:00,31.4,25.4,29.71,West,270,1.0,0.0,78,0.00,,CLR,-99.99,VWS V14.01,2013-03-01 17:21:00,
2013-03-01 12:26:00,31.2,25.5,29.70,West,270,1.0,0.0,79,0.00,,CLR,-99.99,VWS V14.01,2013-03-01 17:26:00,
2013-03-01 12:32:00,31.6,25.9,29.71,West,270,1.0,0.0,79,0.00,,CLR,-99.99,VWS V14.01,2013-03-01 17:32:00,
2013-03-01 12:38:00,31.6,25.5,29.71,NW,315,1.0,0.0,78,0.00,,CLR,-99.99,VWS V14.01,2013-03-01 17:38:00,
2013-03-01 12:43:00,31.2,25.5,29.71,West,270,1.0,0.0,79,0.00,,CLR,-99.99,VWS V14.01,2013-03-01 17:43:00,
2013-03-01 12:48:00,31.2,25.5,29.71,West,270,1.0,0.0,79,0.00,,CLR,-99.99,VWS V14.01,2013-03-01 17:48:00,
2013-03-01 12:54:00,31.2,25.5,29.71,West,270,1.0,0.0,79,0.00,,CLR,-99.99,VWS V14.01,2013-03-01 17:54:00,
2013-03-01 12:59:00,31.2,25.8,29.71,WSW,248,1.0,0.0,80,0.00,,CLR,-99.99,VWS V14.01,2013-03-01 17:59:00,
2013-03-01 13:05:00,31.1,25.7,29.70,WSW,248,1.0,0.0,80,0.00,,CLR,-99.99,VWS V14.01,2013-03-01 18:05:00,
2013-03-01 13:10:00,30.9,25.5,29.70,West,270,1.0,0.0,80,0.00,,CLR,-99.99,VWS V14.01,2013-03-01 18:10:00,
2013-03-01 13:15:00,30.9,25.8,29.71,WNW,292,1.0,0.0,81,0.00,,CLR,-99.99,VWS V14.01,2013-03-01 18:15:00,
2013-03-01 13:20:00,30.9,25.5,29.71,West,270,1.0,0.0,80,0.00,,CLR,-99.99,VWS V14.01,2013-03-01 18:20:00,
2013-03-01 13:25:00,30.7,25.6,29.71,WNW,292,1.0,0.0,81,0.00,,CLR,-99.99,VWS V14.01,2013-03-01 18:25:00,
2013-03-01 13:30:00,30.7,25.6,29.71,WSW,248,1.0,0.0,81,0.00,,CLR,-99.99,VWS V14.01,2013-03-01 18:30:00,
2013-03-01 13:35:00,30.7,25.6,29.71,WNW,292,1.0,0.0,81,0.00,,CLR,-99.99,VWS V14.01,2013-03-01 18:35:00,
2013-03-01 13:40:00,30.9,26.1,29.71,WNW,292,1.0,0.0,82,0.00,,CLR,-99.99,VWS V14.01,2013-03-01 18:40:00,
2013-03-01 13:46:00,30.7,25.9,29.71,NW,315,1.0,0.0,82,0.00,,CLR,-99.99,VWS V14.01,2013-03-01 18:46:00,
2013-03-01 13:52:00,30.7,26.2,29.70,WNW,292,1.0,0.0,83,0.00,,CLR,-99.99,VWS V14.01,2013-03-01 18:52:00,
2013-03-01 13:58:00,30.5,26.2,29.70,NW,315,1.0,0.0,84,0.00,,CLR,-99.99,VWS V14.01,2013-03-01 18:58:00,
2013-03-01 14:04:00,30.3,26.1,29.71,NW,315,1.0,0.0,84,0.00,,CLR,-99.99,VWS V14.01,2013-03-01 19:04:00,
2013-03-01 14:09:00,30.2,26.0,29.71,WNW,292,1.0,0.0,84,0.00,,CLR,-99.99,VWS V14.01,2013-03-01 19:09:00,
2013-03-01 14:15:00,30.0,26.0,29.71,NW,315,1.0,0.0,85,0.00,,CLR,-99.99,VWS V14.01,2013-03-01 19:15:00,
2013-03-01 14:20:00,30.0,26.0,29.71,WNW,292,1.0,0.0,85,0.00,,CLR,-99.99,VWS V14.01,2013-03-01 19:20:00,
2013-03-01 14:25:00,30.0,26.3,29.71,WNW,292,1.0,0.0,86,0.00,,CLR,-99.99,VWS V14.01,2013-03-01 19:25:00,
2013-03-01 14:30:00,30.0,26.3,29.72,West,270,1.0,0.0,86,0.00,,CLR,-99.99,VWS V14.01,2013-03-01 19:30:00,
2013-03-01 14:35:00,30.0,26.3,29.72,West,270,1.0,0.0,86,0.00,,CLR,-99.99,VWS V14.01,2013-03-01 19:35:00,
2013-03-01 14:40:00,30.0,26.3,29.72,WNW,292,1.0,0.0,86,0.00,,CLR,-99.99,VWS V14.01,2013-03-01 19:40:00,
2013-03-01 14:45:00,30.0,26.3,29.72,West,270,1.0,0.0,86,0.00,,CLR,-99.99,VWS V14.01,2013-03-01 19:45:00,
2013-03-01 14:51:00,29.8,26.1,29.72,WNW,292,1.0,0.0,86,0.00,,CLR,-99.99,VWS V14.01,2013-03-01 19:51:00,
2013-03-01 14:57:00,29.8,26.1,29.72,WNW,292,1.0,0.0,86,0.00,,CLR,-99.99,VWS V14.01,2013-03-01 19:57:00,
2013-03-01 15:03:00,30.0,26.3,29.72,NW,315,1.0,0.0,86,0.00,,CLR,-99.99,VWS V14.01,2013-03-01 20:03:00,
2013-03-01 15:09:00,29.6,25.9,29.72,WNW,292,1.0,0.0,86,0.00,,CLR,-99.99,VWS V14.01,2013-03-01 20:09:00,
2013-03-01 15:15:00,29.6,25.9,29.73,West,270,1.0,0.0,86,0.00,,CLR,-99.99,VWS V14.01,2013-03-01 20:15:00,
2013-03-01 15:20:00,29.6,25.9,29.73,WNW,292,1.0,0.0,86,0.00,,CLR,-99.99,VWS V14.01,2013-03-01 20:20:00,
2013-03-01 15:25:00,29.6,25.9,29.73,WSW,248,1.0,0.0,86,0.00,,CLR,-99.99,VWS V14.01,2013-03-01 20:25:00,
2013-03-01 15:30:00,29.8,25.9,29.72,WNW,292,1.0,0.0,85,0.00,,CLR,-99.99,VWS V14.01,2013-03-01 20:30:00,
2013-03-01 15:35:00,30.0,26.0,29.72,WSW,248,1.0,0.0,85,0.00,,CLR,-99.99,VWS V14.01,2013-03-01 20:35:00,
2013-03-01 15:41:00,30.0,26.0,29.73,WNW,292,1.0,0.0,85,0.00,,CLR,-99.99,VWS V14.01,2013-03-01 20:41:00,
2013-03-01 15:47:00,29.8,26.1,29.73,WSW,248,1.0,0.0,86,0.00,,CLR,-99.99,VWS V14.01,2013-03-01 20:47:00,
2013-03-01 15:52:00,29.8,26.1,29.73,WNW,292,1.0,0.0,86,0.00,,CLR,-99.99,VWS V14.01,2013-03-01 20:52:00,
2013-03-01 15:57:00,29.8,26.1,29.72,West,270,1.0,0.0,86,0.00,,CLR,-99.99,VWS V14.01,2013-03-01 20:57:00,
2013-03-01 16:03:00,29.3,25.6,29.73,WSW,248,1.0,0.0,86,0.00,,CLR,-99.99,VWS V14.01,2013-03-01 21:03:00,
2013-03-01 16:08:00,29.1,25.4,29.73,West,270,1.0,0.0,86,0.00,,CLR,-99.99,VWS V14.01,2013-03-01 21:08:00,
2013-03-01 16:13:00,29.1,25.7,29.73,WNW,292,1.0,0.0,87,0.00,,CLR,-99.99,VWS V14.01,2013-03-01 21:13:00,
2013-03-01 16:19:00,28.9,25.5,29.73,West,270,1.0,0.0,87,0.00,,CLR,-99.99,VWS V14.01,2013-03-01 21:19:00,
2013-03-01 16:24:00,29.1,25.7,29.73,West,270,1.0,0.0,87,0.00,,CLR,-99.99,VWS V14.01,2013-03-01 21:24:00,
2013-03-01 16:30:00,29.1,25.7,29.73,WSW,248,1.0,0.0,87,0.00,,CLR,-99.99,VWS V14.01,2013-03-01 21:30:00,
2013-03-01 16:35:00,29.1,25.7,29.73,WSW,248,1.0,0.0,87,0.00,,CLR,-99.99,VWS V14.01,2013-03-01 21:35:00,
2013-03-01 16:40:00,28.9,25.5,29.73,WSW,248,1.0,0.0,87,0.00,,CLR,-99.99,VWS V14.01,2013-03-01 21:40:00,
2013-03-01 16:45:00,28.9,25.5,29.73,WSW,248,1.0,0.0,87,0.00,,CLR,-99.99,VWS V14.01,2013-03-01 21:45:00,
2013-03-01 16:50:00,28.9,25.5,29.73,WSW,248,1.0,0.0,87,0.00,,CLR,-99.99,VWS V14.01,2013-03-01 21:50:00,
2013-03-01 16:55:00,28.7,25.3,29.73,WSW,248,1.0,0.0,87,0.00,,CLR,-99.99,VWS V14.01,2013-03-01 21:55:00,
2013-03-01 17:00:00,28.5,25.1,29.73,WSW,248,1.0,0.0,87,0.00,,CLR,-99.99,VWS V14.01,2013-03-01 22:00:00,
2013-03-01 17:06:00,28.5,25.4,29.74,WNW,292,1.0,0.0,88,0.00,,CLR,-99.99,VWS V14.01,2013-03-01 22:06:00,
2013-03-01 17:11:00,28.5,25.4,29.74,WNW,292,1.0,0.0,88,0.00,,CLR,-99.99,VWS V14.01,2013-03-01 22:11:00,
2013-03-01 17:16:00,28.5,25.4,29.74,West,270,1.0,0.0,88,0.00,,CLR,-99.99,VWS V14.01,2013-03-01 22:16:00,
2013-03-01 17:21:00,28.5,25.4,29.74,WSW,248,1.0,0.0,88,0.00,,CLR,-99.99,VWS V14.01,2013-03-01 22:21:00,
2013-03-01 17:26:00,28.5,25.7,29.74,West,270,1.0,0.0,89,0.00,,CLR,-99.99,VWS V14.01,2013-03-01 22:26:00,
2013-03-01 17:32:00,28.5,25.7,29.74,WNW,292,1.0,0.0,89,0.00,,CLR,-99.99,VWS V14.01,2013-03-01 22:32:00,
2013-03-01 17:38:00,28.5,25.7,29.74,WNW,292,1.0,0.0,89,0.00,,CLR,-99.99,VWS V14.01,2013-03-01 22:38:00,
2013-03-01 17:43:00,28.4,25.6,29.74,West,270,1.0,0.0,89,0.00,,CLR,-99.99,VWS V14.01,2013-03-01 22:43:00,
2013-03-01 17:49:00,28.4,25.6,29.74,NW,315,1.0,0.0,89,0.00,,CLR,-99.99,VWS V14.01,2013-03-01 22:49:00,
2013-03-01 17:55:00,28.5,25.7,29.74,WNW,292,1.0,0.0,89,0.00,,CLR,-99.99,VWS V14.01,2013-03-01 22:55:00,
2013-03-01 18:00:00,28.4,25.6,29.75,WSW,248,1.0,0.0,89,0.00,,CLR,-99.99,VWS V14.01,2013-03-01 23:00:00,
2013-03-01 18:05:00,28.2,25.4,29.75,WNW,292,1.0,0.0,89,0.00,,CLR,-99.99,VWS V14.01,2013-03-01 23:05:00,
2013-03-01 18:10:00,28.2,25.4,29.75,WNW,292,1.0,0.0,89,0.00,,CLR,-99.99,VWS V14.01,2013-03-01 23:10:00,
2013-03-01 18:15:00,28.2,25.4,29.75,WSW,248,1.0,0.0,89,0.00,,CLR,-99.99,VWS V14.01,2013-03-01 23:15:00,
2013-03-01 18:20:00,28.2,25.4,29.75,WSW,248,1.0,0.0,89,0.00,,CLR,-99.99,VWS V14.01,2013-03-01 23:20:00,
2013-03-01 18:25:00,28.4,25.6,29.75,WSW,248,1.0,0.0,89,0.00,,CLR,-99.99,VWS V14.01,2013-03-01 23:25:00,
2013-03-01 18:30:00,28.2,25.4,29.75,WSW,248,1.0,0.0,89,0.00,,CLR,-99.99,VWS V14.01,2013-03-01 23:30:00,
2013-03-01 18:35:00,28.2,25.4,29.76,SW,225,1.0,0.0,89,0.00,,CLR,-99.99,VWS V14.01,2013-03-01 23:35:00,
2013-03-01 18:40:00,28.2,25.6,29.76,WSW,248,1.0,0.0,90,0.00,,CLR,-99.99,VWS V14.01,2013-03-01 23:40:00,
2013-03-01 18:45:00,28.4,25.9,29.76,NW,315,1.0,0.0,90,0.00,,CLR,-99.99,VWS V14.01,2013-03-01 23:45:00,
2013-03-01 18:50:00,28.2,25.6,29.76,WNW,292,1.0,0.0,90,0.00,,CLR,-99.99,VWS V14.01,2013-03-01 23:50:00,
2013-03-01 18:55:00,28.2,25.6,29.76,WSW,248,1.0,0.0,90,0.00,,CLR,-99.99,VWS V14.01,2013-03-01 23:55:00,
2013-03-01 19:00:00,28.2,25.6,29.76,WSW,248,1.0,0.0,90,0.00,,CLR,-99.99,VWS V14.01,2013-03-02 00:00:00,
2013-03-01 19:05:00,28.2,25.6,29.76,WSW,248,1.0,0.0,90,0.00,,CLR,-99.99,VWS V14.01,2013-03-02 00:05:00,
2013-03-01 19:11:00,28.2,25.6,29.76,West,270,1.0,0.0,90,0.00,,CLR,-99.99,VWS V14.01,2013-03-02 00:11:00,
2013-03-01 19:16:00,28.2,25.6,29.76,WNW,292,1.0,0.0,90,0.00,,CLR,-99.99,VWS V14.01,2013-03-02 00:16:00,
2013-03-01 19:22:00,28.2,25.6,29.76,West,270,1.0,0.0,90,0.00,,CLR,-99.99,VWS V14.01,2013-03-02 00:22:00,
2013-03-01 19:28:00,28.2,25.6,29.76,WNW,292,1.0,0.0,90,0.00,,CLR,-99.99,VWS V14.01,2013-03-02 00:28:00,
2013-03-01 19:34:00,28.2,25.6,29.76,WSW,248,1.0,0.0,90,0.00,,CLR,-99.99,VWS V14.01,2013-03-02 00:34:00,
2013-03-01 19:39:00,28.0,25.5,29.76,WNW,292,1.0,0.0,90,0.00,,CLR,-99.99,VWS V14.01,2013-03-02 00:39:00,
2013-03-01 19:44:00,28.0,25.5,29.76,West,270,1.0,0.0,90,0.00,,CLR,-99.99,VWS V14.01,2013-03-02 00:44:00,
2013-03-01 19:50:00,28.0,25.5,29.76,WSW,248,1.0,0.0,90,0.00,,CLR,-99.99,VWS V14.01,2013-03-02 00:50:00,
2013-03-01 19:55:00,28.0,25.5,29.76,West,270,1.0,0.0,90,0.00,,CLR,-99.99,VWS V14.01,2013-03-02 00:55:00,
2013-03-01 20:00:00,28.0,25.5,29.76,West,270,1.0,0.0,90,0.00,,CLR,-99.99,VWS V14.01,2013-03-02 01:00:00,
2013-03-01 20:05:00,27.8,25.2,29.76,West,270,1.0,0.0,90,0.00,,CLR,-99.99,VWS V14.01,2013-03-02 01:05:00,
2013-03-01 20:10:00,27.6,25.3,29.76,West,270,1.0,0.0,91,0.00,,CLR,-99.99,VWS V14.01,2013-03-02 01:10:00,
2013-03-01 20:15:00,27.6,25.1,29.76,West,270,1.0,0.0,90,0.00,,CLR,-99.99,VWS V14.01,2013-03-02 01:15:00,
2013-03-01 20:20:00,27.6,25.1,29.76,WSW,248,1.0,0.0,90,0.00,,CLR,-99.99,VWS V14.01,2013-03-02 01:20:00,
2013-03-01 20:26:00,27.6,25.1,29.76,West,270,1.0,0.0,90,0.00,,CLR,-99.99,VWS V14.01,2013-03-02 01:26:00,
2013-03-01 20:31:00,27.6,25.1,29.76,West,270,1.0,0.0,90,0.00,,CLR,-99.99,VWS V14.01,2013-03-02 01:31:00,
2013-03-01 20:37:00,27.6,25.1,29.76,West,270,1.0,0.0,90,0.00,,CLR,-99.99,VWS V14.01,2013-03-02 01:37:00,
2013-03-01 20:43:00,27.5,25.0,29.76,WNW,292,1.0,0.0,90,0.00,,CLR,-99.99,VWS V14.01,2013-03-02 01:43:00,
2013-03-01 20:48:00,27.6,25.1,29.76,West,270,1.0,0.0,90,0.00,,CLR,-99.99,VWS V14.01,2013-03-02 01:48:00,
2013-03-01 20:54:00,27.5,25.0,29.76,WNW,292,1.0,0.0,90,0.00,,CLR,-99.99,VWS V14.01,2013-03-02 01:54:00,
2013-03-01 21:00:00,27.5,25.0,29.76,West,270,1.0,0.0,90,0.00,,CLR,-99.99,VWS V14.01,2013-03-02 02:00:00,
2013-03-01 21:05:00,27.5,25.0,29.75,WNW,292,1.0,0.0,90,0.00,,CLR,-99.99,VWS V14.01,2013-03-02 02:05:00,
2013-03-01 21:10:00,27.5,25.0,29.75,WNW,292,1.0,0.0,90,0.00,,CLR,-99.99,VWS V14.01,2013-03-02 02:10:00,
2013-03-01 21:15:00,27.5,25.0,29.75,West,270,1.0,0.0,90,0.00,,CLR,-99.99,VWS V14.01,2013-03-02 02:15:00,
2013-03-01 21:20:00,27.5,25.0,29.75,SW,225,1.0,0.0,90,0.00,,CLR,-99.99,VWS V14.01,2013-03-02 02:20:00,
2013-03-01 21:25:00,27.3,24.8,29.75,WSW,248,1.0,0.0,90,0.00,,CLR,-99.99,VWS V14.01,2013-03-02 02:25:00,
2013-03-01 21:30:00,27.3,24.8,29.75,NW,315,1.0,0.0,90,0.00,,CLR,-99.99,VWS V14.01,2013-03-02 02:30:00,
2013-03-01 21:35:00,27.3,24.8,29.75,West,270,1.0,0.0,90,0.00,,CLR,-99.99,VWS V14.01,2013-03-02 02:35:00,
2013-03-01 21:40:00,27.1,24.6,29.75,WSW,248,1.0,0.0,90,0.00,,CLR,-99.99,VWS V14.01,2013-03-02 02:40:00,
2013-03-01 21:45:00,27.1,24.6,29.75,WNW,292,1.0,0.0,90,0.00,,CLR,-99.99,VWS V14.01,2013-03-02 02:45:00,
2013-03-01 21:50:00,27.1,24.6,29.75,West,270,1.0,0.0,90,0.00,,CLR,-99.99,VWS V14.01,2013-03-02 02:50:00,
2013-03-01 21:55:00,27.1,24.6,29.75,West,270,1.0,0.0,90,0.00,,CLR,-99.99,VWS V14.01,2013-03-02 02:55:00,
2013-03-01 22:00:00,26.9,24.4,29.75,WNW,292,1.0,0.0,90,0.00,,CLR,-99.99,VWS V14.01,2013-03-02 03:00:00,
2013-03-01 22:05:00,26.9,24.1,29.75,WNW,292,1.0,0.0,89,0.00,,CLR,-99.99,VWS V14.01,2013-03-02 03:05:00,
2013-03-01 22:10:00,26.9,24.1,29.75,WSW,248,1.0,0.0,89,0.00,,CLR,-99.99,VWS V14.01,2013-03-02 03:10:00,
2013-03-01 22:15:00,26.9,24.1,29.75,WNW,292,1.0,0.0,89,0.00,,CLR,-99.99,VWS V14.01,2013-03-02 03:15:00,
2013-03-01 22:20:00,26.9,24.1,29.75,WSW,248,1.0,0.0,89,0.00,,CLR,-99.99,VWS V14.01,2013-03-02 03:20:00,
2013-03-01 22:25:00,26.9,24.1,29.75,West,270,1.0,0.0,89,0.00,,CLR,-99.99,VWS V14.01,2013-03-02 03:25:00,
2013-03-01 22:30:00,26.9,24.1,29.75,WNW,292,1.0,0.0,89,0.00,,CLR,-99.99,VWS V14.01,2013-03-02 03:30:00,
2013-03-01 22:35:00,26.7,23.9,29.75,WNW,292,1.0,0.0,89,0.00,,CLR,-99.99,VWS V14.01,2013-03-02 03:35:00,
2013-03-01 22:40:00,26.7,23.9,29.75,WNW,292,1.0,0.0,89,0.00,,CLR,-99.99,VWS V14.01,2013-03-02 03:40:00,
2013-03-01 22:46:00,26.9,24.1,29.75,WNW,292,1.0,0.0,89,0.00,,CLR,-99.99,VWS V14.01,2013-03-02 03:46:00,
2013-03-01 22:52:00,26.9,24.1,29.75,WNW,292,1.0,0.0,89,0.00,,CLR,-99.99,VWS V14.01,2013-03-02 03:52:00,
2013-03-01 22:57:00,26.9,24.1,29.75,West,270,1.0,0.0,89,0.00,,CLR,-99.99,VWS V14.01,2013-03-02 03:57:00,
2013-03-01 23:03:00,26.9,24.1,29.75,West,270,1.0,0.0,89,0.00,,CLR,-99.99,VWS V14.01,2013-03-02 04:03:00,
2013-03-01 23:08:00,26.9,24.1,29.75,WNW,292,1.0,0.0,89,0.00,,CLR,-99.99,VWS V14.01,2013-03-02 04:08:00,
2013-03-01 23:14:00,26.9,24.1,29.75,WSW,248,1.0,0.0,89,0.00,,CLR,-99.99,VWS V14.01,2013-03-02 04:14:00,
2013-03-01 23:20:00,26.9,24.4,29.75,WNW,292,1.0,0.0,90,0.00,,CLR,-99.99,VWS V14.01,2013-03-02 04:20:00,
2013-03-01 23:25:00,26.9,24.4,29.75,WNW,292,1.0,0.0,90,0.00,,CLR,-99.99,VWS V14.01,2013-03-02 04:25:00,
2013-03-01 23:30:00,26.9,24.4,29.75,West,270,1.0,0.0,90,0.00,,CLR,-99.99,VWS V14.01,2013-03-02 04:30:00,
2013-03-01 23:35:00,26.9,24.4,29.75,West,270,1.0,0.0,90,0.00,,CLR,-99.99,VWS V14.01,2013-03-02 04:35:00,
2013-03-01 23:40:00,26.9,24.4,29.75,West,270,1.0,0.0,90,0.00,,CLR,-99.99,VWS V14.01,2013-03-02 04:40:00,
2013-03-01 23:45:00,26.9,24.4,29.75,WNW,292,1.0,0.0,90,0.00,,CLR,-99.99,VWS V14.01,2013-03-02 04:45:00,
2013-03-01 23:50:00,26.9,24.4,29.75,WNW,292,1.0,0.0,90,0.00,,CLR,-99.99,VWS V14.01,2013-03-02 04:50:00,
2013-03-01 23:55:00,26.9,24.4,29.74,WSW,248,1.0,0.0,90,0.00,,CLR,-99.99,VWS V14.01,2013-03-02 04:55:00,